[[{"header":{"parameterUnit":"m.s-1","parameterCategory":1,"la1":30.2991,"la2":30.254,"lo1":-89.0895,"lo2":-89.0444,"dx":0.0017,"dy":0.0017,"nx":28,"ny":28,"refTime":"2022-11-19T09:00:00:Z","depth":0,"parameterNumber":2,"parameterNumberName":"U-component_of_WINDS"},"data":[0,0,0,0,0,0,0,0,0,0,0,0,0,0,0,0,0,0,0,0,0,0,0,0,0,0,0,0,0,0,0,0,0,0,0,0,0,0,0,0,0,0,0,0,0,0,0,0,0,0,0,0,0,0,0,0,0,0,-3.2467,-3.2467,0,-3.2543,-3.2544,-3.2545,-3.2475,-3.2472,-3.2469,-3.2467,-3.2547,-3.2551,-3.2556,0,0,0,0,0,0,0,0,0,0,0,0,0,-3.2262,-3.2266,-3.2466,-3.2467,-3.2468,-3.2543,-3.2544,-3.2545,-3.2476,-3.2472,-3.2469,-3.2465,-3.2545,-3.2551,-3.2556,0,0,0,0,0,0,0,0,0,0,0,0,0,-3.2346,-3.2267,-3.2466,-3.2443,-3.2441,-3.2543,-3.2544,-3.2545,-3.2476,-3.2472,-3.2468,-3.2464,-3.2543,-3.255,-3.2557,-3.2686,0,0,-3.2579,-3.2582,0,0,0,0,0,0,0,0,-3.2341,-3.2353,-3.2445,-3.2445,-3.2443,-3.2495,-3.2501,-3.2592,-3.2477,-3.2463,-3.2467,-3.2462,-3.2533,-3.2541,-3.2564,-3.269,-3.2693,-3.2579,-3.2584,-3.2587,-3.2589,0,0,0,0,0,0,0,-3.2335,-3.235,-3.2497,-3.2447,-3.2445,-3.2429,-3.2436,-3.2518,-3.2521,-3.2464,-3.2459,-3.2469,-3.2532,-3.2558,-3.2566,-3.2694,-3.2579,-3.2586,-3.259,-3.2593,-3.293,-3.2934,0,0,0,0,0,0,-3.2332,-3.2345,-3.2494,-3.2499,-3.2381,-3.2436,-3.2444,-3.2483,-3.252,-3.2521,-3.2473,-3.2465,-3.2547,-3.2557,-3.2568,-3.2723,-3.2587,-3.2594,-3.2598,-3.2925,-3.2931,-3.2936,0,0,0,0,0,0,-3.2328,-3.2346,-3.2491,-3.2421,-3.2438,-3.2444,-3.2488,-3.2486,-3.2512,-3.2526,-3.2527,-3.2499,-3.2545,-3.2558,-3.2657,-3.2724,-3.2597,-3.2603,-3.292,-3.2927,-3.2933,-3.3032,0,0,0,0,0,0,-3.2322,-3.2345,-3.2394,-3.2422,-3.2442,-3.2579,-3.2492,-3.2491,-3.2525,-3.2516,-3.2551,-3.2552,-3.2542,-3.2647,-3.2664,-3.2732,-3.2609,-3.2914,-3.2923,-3.2931,-3.3023,-3.3042,-3.3058,0,0,0,0,0,-3.2315,-3.2419,-3.2396,-3.2415,-3.2503,-3.2583,-3.2594,-3.258,-3.253,-3.258,-3.2589,-3.2551,-3.2714,-3.2658,-3.2677,-3.2747,-3.2909,-3.292,-3.293,-3.3015,-3.3038,-3.3057,0,0,0,0,0,0,-3.2398,-3.2422,-3.2398,-3.2514,-3.2547,-3.2571,-3.2633,-3.2605,-3.2653,-3.2643,-3.2624,-3.2632,-3.2737,-3.2751,-3.2689,-3.2874,-3.2804,-3.2818,-3.2861,-3.2883,-3.29,-3.2896,-3.2615,0,0,0,0,0,-3.243,-3.2492,-3.2509,-3.261,-3.2628,-3.2628,-3.2662,-3.2648,-3.2682,-3.2696,-3.2712,-3.2747,-3.2805,-3.2844,-3.2899,-3.3024,-3.3031,-3.3082,-3.3099,-3.3113,-3.3127,-3.3195,-3.3218,-3.297,-3.297,-3.297,0,0,-3.2496,-3.2517,-3.2558,-3.2627,-3.2651,-3.2717,-3.264,-3.2713,-3.2762,-3.2707,-3.2802,-3.2815,-3.2852,-3.2965,-3.3015,-3.298,-3.3196,-3.3126,-3.3138,-3.3144,-3.3208,-3.3232,-3.3252,-3.2977,-3.2976,-3.2975,0,0,-3.2652,-3.2673,-3.2759,-3.2785,-3.2822,-3.2821,-3.2842,-3.2871,-3.2877,-3.2972,-3.2932,-3.299,-3.3091,-3.312,-3.3147,-3.3312,-3.3281,-3.3331,-3.3422,-3.3489,-3.3508,-3.3526,-3.3586,-3.3608,-3.3344,-3.3344,-3.3344,0,-3.273,-3.2827,-3.2808,-3.2884,-3.2916,-3.2868,-3.2956,-3.2982,-3.3035,-3.3059,-3.3018,-3.3145,-3.3167,-3.3286,-3.3326,-3.3349,-3.3374,-3.3328,-3.3507,-3.3524,-3.354,-3.3598,-3.362,-3.335,-3.3349,-3.3349,-3.3348,0,-3.2922,-3.299,-3.3056,-3.3109,-3.3148,-3.3229,-3.3223,-3.3265,-3.3247,-3.325,-3.3348,-3.3371,-3.3431,-3.3457,-3.3441,-3.3574,-3.3552,-3.3509,-3.3439,-3.357,-3.3624,-3.3646,-3.3359,-3.3356,-3.3355,-3.3353,0,0,-3.3135,-3.3174,-3.3199,-3.3223,-3.326,-3.3312,-3.3391,-3.3449,-3.3486,-3.3523,-3.3591,-3.3677,-3.3638,-3.367,-3.3655,-3.3713,-3.3844,-3.3664,-3.3664,-3.3698,-3.3995,-3.4029,-3.4054,-3.3822,-3.3826,-3.3829,-3.3993,0,-3.3293,-3.3431,-3.3415,-3.3547,-3.361,-3.3565,-3.3634,-3.3665,-3.3669,-3.3724,-3.3729,-3.3791,-3.3734,-3.3753,-3.3808,-3.3817,-3.3904,-3.3804,-3.3886,-3.3889,-3.3881,-3.4082,-3.4118,-3.4271,-3.4013,-3.4017,-3.4019,0,-3.3497,-3.3542,-3.368,-3.3707,-3.3733,-3.3796,-3.3847,-3.3899,-3.3933,-3.3932,-3.3967,-3.3943,-3.4023,-3.3948,-3.4059,-3.3991,-3.4023,-3.4032,-3.4038,-3.4047,-3.3964,-3.4099,-3.4319,-3.4343,-3.4052,-3.4049,-3.4047,0,-3.364,-3.3735,-3.383,-3.3851,-3.3885,-3.3931,-3.3947,-3.3976,-3.4011,-3.4056,-3.4079,-3.4132,-3.4162,-3.4204,-3.4195,-3.4141,-3.4309,-3.4233,-3.4312,-3.4313,-3.4352,-3.435,-3.4583,-3.4368,-3.4368,-3.4367,-3.4367,0,-3.382,-3.3907,-3.3895,-3.3955,-3.405,-3.4031,-3.4127,-3.4137,-3.4163,-3.4224,-3.4187,-3.4245,-3.4228,-3.4285,-3.4277,-3.4371,-3.4384,-3.4387,-3.4385,-3.4392,-3.4392,-3.4415,-3.4405,-3.4374,-3.4372,-3.4371,-3.437,0,-3.3998,-3.3994,-3.4095,-3.4118,-3.4126,-3.4196,-3.4216,-3.4272,-3.4272,-3.435,-3.4367,-3.4369,-3.4434,-3.4428,-3.4501,-3.4496,-3.4613,-3.4596,-3.4602,-3.4599,-3.4679,-3.4673,-3.4937,-3.4971,-3.4732,-3.4735,-3.4736,0,-3.4115,-3.4181,-3.4211,-3.4248,-3.4268,-3.4329,-3.4365,-3.4348,-3.4387,-3.4429,-3.448,-3.4541,-3.459,-3.4696,-3.4705,-3.476,-3.4746,-3.4835,-3.4755,-3.476,-3.475,-3.4748,-3.4755,-3.4852,-3.4854,-3.4857,-3.4858,0,-3.4323,-3.4317,-3.437,-3.4423,-3.4466,-3.4507,-3.4544,-3.4576,-3.4563,-3.4609,-3.4675,-3.4712,-3.4786,-3.4848,-3.4901,-3.4918,-3.4887,-3.4883,-3.4905,-3.4914,-3.4916,-3.4918,-3.4648,-3.4878,-3.4876,-3.4874,-3.4873,-3.4873,-3.4475,-3.4532,-3.4562,-3.4623,-3.4648,-3.4683,-3.4737,-3.4744,-3.4799,-3.4858,-3.4844,-3.4919,-3.495,-3.5017,-3.5039,-3.5097,-3.5066,-3.5096,-3.5105,-3.5113,-3.5124,-3.4904,-3.5107,-3.5106,-3.5106,-3.5105,-3.5105,0,-3.4683,-3.47,-3.4756,-3.4808,-3.4856,-3.482,-3.4859,-3.4901,-3.4967,-3.4999,-3.5047,-3.5123,-3.5183,-3.5195,-3.5252,-3.5297,-3.5284,-3.5312,-3.531,-3.5315,-3.5148,-3.5125,-3.5322,-3.5322,-3.5322,-3.5322,-3.5322,-3.5322,-3.4798,-3.4892,-3.489,-3.4996,-3.5012,-3.5085,-3.511,-3.5143,-3.5168,-3.5254,-3.5303,-3.531,-3.5335,-3.5393,-3.5446,-3.5448,-3.5472,-3.5507,-3.5504,-3.5348,-3.5327,-3.5306,-3.5284,-3.5512,-3.5512,-3.5666,-3.5668,-3.5669]},{"header":{"parameterUnit":"m.s-1","parameterCategory":1,"la1":30.2991,"la2":30.254,"lo1":-89.0895,"lo2":-89.0444,"dx":0.0017,"dy":0.0017,"nx":28,"ny":28,"refTime":"2022-11-19T09:00:00:Z","depth":0,"parameterNumber":3,"parameterNumberName":"V-component_of_WINDS"},"data":[0,0,0,0,0,0,0,0,0,0,0,0,0,0,0,0,0,0,0,0,0,0,0,0,0,0,0,0,0,0,0,0,0,0,0,0,0,0,0,0,0,0,0,0,0,0,0,0,0,0,0,0,0,0,0,0,0,0,-6.7583,-6.7584,0,-6.764,-6.7641,-6.7642,-6.7556,-6.7553,-6.755,-6.7547,-6.7602,-6.7606,-6.761,0,0,0,0,0,0,0,0,0,0,0,0,0,-6.7394,-6.7398,-6.7583,-6.7584,-6.7584,-6.764,-6.7641,-6.7642,-6.7557,-6.7553,-6.755,-6.7546,-6.76,-6.7605,-6.761,0,0,0,0,0,0,0,0,0,0,0,0,0,-6.7466,-6.7399,-6.7583,-6.7549,-6.7546,-6.764,-6.7641,-6.7642,-6.7558,-6.7553,-6.7549,-6.7544,-6.7599,-6.7605,-6.7611,-6.7739,0,0,-6.763,-6.7633,0,0,0,0,0,0,0,0,-6.7462,-6.7473,-6.7553,-6.7551,-6.7549,-6.7587,-6.7594,-6.7674,-6.7559,-6.7553,-6.7547,-6.7542,-6.76,-6.7606,-6.7626,-6.7742,-6.7744,-6.7631,-6.7635,-6.7638,-6.7639,0,0,0,0,0,0,0,-6.7457,-6.747,-6.7605,-6.7554,-6.7552,-6.7529,-6.7534,-6.7609,-6.7601,-6.7553,-6.7547,-6.7555,-6.7598,-6.762,-6.7627,-6.7745,-6.7631,-6.7636,-6.764,-6.7643,-6.7967,-6.7972,0,0,0,0,0,0,-6.7457,-6.7467,-6.7604,-6.7607,-6.7494,-6.7536,-6.7542,-6.7579,-6.76,-6.7599,-6.7559,-6.7551,-6.7612,-6.762,-6.7629,-6.778,-6.7637,-6.7643,-6.7647,-6.7962,-6.7968,-6.7974,0,0,0,0,0,0,-6.7453,-6.747,-6.7601,-6.7535,-6.755,-6.7544,-6.7586,-6.7582,-6.7605,-6.7604,-6.7602,-6.7584,-6.7609,-6.762,-6.7712,-6.778,-6.7646,-6.7652,-6.7957,-6.7964,-6.7971,-6.8083,0,0,0,0,0,0,-6.7448,-6.7469,-6.752,-6.7537,-6.7554,-6.7686,-6.759,-6.7587,-6.7617,-6.7607,-6.7627,-6.7626,-6.7606,-6.7704,-6.7719,-6.7786,-6.7657,-6.7951,-6.796,-6.7969,-6.8073,-6.8093,-6.811,0,0,0,0,0,-6.7442,-6.7548,-6.7523,-6.7539,-6.7617,-6.769,-6.77,-6.7676,-6.7622,-6.7672,-6.7671,-6.7625,-6.7771,-6.7714,-6.773,-6.7801,-6.7946,-6.7957,-6.7968,-6.8065,-6.8089,-6.811,0,0,0,0,0,0,-6.7537,-6.755,-6.7522,-6.7637,-6.7663,-6.7676,-6.7737,-6.7703,-6.7744,-6.7733,-6.77,-6.7705,-6.7804,-6.7812,-6.7748,-6.7925,-6.7849,-6.7864,-6.7917,-6.794,-6.7959,-6.7955,-6.7662,0,0,0,0,0,-6.7571,-6.7632,-6.7639,-6.774,-6.7755,-6.7744,-6.7775,-6.7755,-6.778,-6.779,-6.7796,-6.7822,-6.7872,-6.7907,-6.7954,-6.8074,-6.8076,-6.813,-6.8149,-6.8164,-6.8177,-6.824,-6.8264,-6.8009,-6.8009,-6.8009,0,0,-6.7643,-6.7657,-6.7697,-6.7759,-6.7777,-6.7839,-6.7754,-6.7823,-6.7867,-6.78,-6.7889,-6.7894,-6.7919,-6.8027,-6.8074,-6.8036,-6.8248,-6.8178,-6.819,-6.8195,-6.8254,-6.8278,-6.8299,-6.8017,-6.8015,-6.8014,0,0,-6.7804,-6.7822,-6.7908,-6.7928,-6.7957,-6.7949,-6.797,-6.7988,-6.7989,-6.8078,-6.8029,-6.808,-6.8169,-6.8189,-6.8211,-6.838,-6.8339,-6.8396,-6.8493,-6.8555,-6.8575,-6.8592,-6.8652,-6.8674,-6.8409,-6.841,-6.841,0,-6.7889,-6.7982,-6.7956,-6.8029,-6.8056,-6.8,-6.8085,-6.8105,-6.8148,-6.8168,-6.8125,-6.8235,-6.8248,-6.8358,-6.84,-6.842,-6.8441,-6.8394,-6.8574,-6.8592,-6.8608,-6.8664,-6.8687,-6.8416,-6.8415,-6.8415,-6.8414,0,-6.8084,-6.8149,-6.8214,-6.8259,-6.8294,-6.8372,-6.8357,-6.8395,-6.8371,-6.8368,-6.8457,-6.8472,-6.852,-6.8545,-6.8521,-6.8652,-6.8627,-6.858,-6.8502,-6.8639,-6.8692,-6.8713,-6.8426,-6.8423,-6.8421,-6.842,0,0,-6.8307,-6.8336,-6.8361,-6.838,-6.8407,-6.8456,-6.8531,-6.858,-6.8614,-6.8644,-6.8706,-6.8782,-6.8738,-6.8763,-6.8742,-6.8796,-6.8928,-6.8742,-6.8742,-6.8776,-6.9072,-6.9107,-6.9132,-6.8901,-6.8905,-6.8909,-6.9069,0,-6.8468,-6.8601,-6.8579,-6.8706,-6.8765,-6.8712,-6.8777,-6.88,-6.8798,-6.8846,-6.8843,-6.8898,-6.8837,-6.8851,-6.8903,-6.8902,-6.8987,-6.889,-6.8957,-6.8959,-6.8952,-6.916,-6.9198,-6.9349,-6.909,-6.9093,-6.9096,0,-6.8674,-6.8714,-6.8848,-6.8866,-6.889,-6.8949,-6.8992,-6.9039,-6.9063,-6.9058,-6.9086,-6.9054,-6.9127,-6.9049,-6.9149,-6.9083,-6.9109,-6.9112,-6.9118,-6.9123,-6.9036,-6.917,-6.9396,-6.9419,-6.9128,-6.9125,-6.9123,0,-6.8823,-6.891,-6.9001,-6.9019,-6.9043,-6.9085,-6.9097,-6.9117,-6.9148,-6.9184,-6.9203,-6.9248,-6.9272,-6.9306,-6.9286,-6.9231,-6.9389,-6.9309,-6.9385,-6.9386,-6.9421,-6.9419,-6.9654,-6.9439,-6.9438,-6.9438,-6.9437,0,-6.9005,-6.9089,-6.9068,-6.9125,-6.9216,-6.919,-6.928,-6.9285,-6.9303,-6.9358,-6.9314,-6.9365,-6.9336,-6.9385,-6.937,-6.9454,-6.9466,-6.9462,-6.9457,-6.9466,-6.9467,-6.9483,-6.9471,-6.9444,-6.9442,-6.9441,-6.944,0,-6.9187,-6.9177,-6.9273,-6.9287,-6.9293,-6.936,-6.9371,-6.9422,-6.9417,-6.9487,-6.9501,-6.9493,-6.9548,-6.9532,-6.9592,-6.9581,-6.9688,-6.9669,-6.968,-6.9676,-6.9753,-6.9745,-7.0006,-7.0038,-6.9802,-6.9805,-6.9807,0,-6.9304,-6.9367,-6.9389,-6.9423,-6.9438,-6.9494,-6.9525,-6.9501,-6.9535,-6.9567,-6.9615,-6.9666,-6.9706,-6.9797,-6.9795,-6.984,-6.9822,-6.991,-6.9828,-6.9835,-6.9823,-6.9819,-6.9825,-6.9926,-6.9929,-6.9931,-6.9933,0,-6.9512,-6.9504,-6.9551,-6.9598,-6.9637,-6.9672,-6.9702,-6.9732,-6.971,-6.975,-6.9807,-6.9838,-6.9899,-6.9951,-6.9992,-7.0001,-6.9964,-6.9959,-6.9979,-6.9989,-6.9992,-6.9991,-6.9724,-6.9953,-6.9951,-6.995,-6.9948,-6.9948,-6.9664,-6.9718,-6.9742,-6.9796,-6.9817,-6.9846,-6.9895,-6.9897,-6.9944,-6.9993,-6.9975,-7.0041,-7.0062,-7.0113,-7.0128,-7.0177,-7.0143,-7.0172,-7.0179,-7.0187,-7.0197,-6.9985,-7.0184,-7.0184,-7.0183,-7.0183,-7.0182,0,-6.9869,-6.9882,-6.9933,-6.9978,-7.002,-6.9982,-7.0014,-7.0051,-7.011,-7.0134,-7.0174,-7.0239,-7.0289,-7.0291,-7.0337,-7.0376,-7.0359,-7.0389,-7.0385,-7.0388,-7.0225,-7.0203,-7.0401,-7.0401,-7.0401,-7.0401,-7.0401,-7.0401,-6.9981,-7.007,-7.0065,-7.0162,-7.0174,-7.0239,-7.026,-7.0286,-7.0305,-7.038,-7.0422,-7.0423,-7.0438,-7.0484,-7.0528,-7.0527,-7.0545,-7.0581,-7.0574,-7.0421,-7.0399,-7.0379,-7.0358,-7.0585,-7.0586,-7.0733,-7.0734,-7.0735]}]]